Regional Weather Roundup
Issued by NWS Mt. Holly, NJ

Home | Current Version | Previous Version | Text Only | Print | Product List | Glossary On
Versions: 1 2 3 4 5 6 7 8 9 10 11 12 13 14 15 16 17 18 19 20 21 22 23 24 25 26 27 28 29 30 31 32 33 34 35 36 37 38 39 40 41 42 43 44 45 46 47 48 49
000
ASUS41 KPHI 281311
RWRPHI

REGIONAL WEATHER ROUNDUP
NATIONAL WEATHER SERVICE MOUNT HOLLY NJ
800 AM EST SAT FEB 28 2015

NOTE:  "FAIR" INDICATES FEW OR NO CLOUDS BELOW 12,000 FEET WITH NO
SIGNIFICANT WEATHER AND/OR OBSTRUCTIONS TO VISIBILITY.

 * = STATION DOES NOT REPORT PRECIPITATION (E.G. RAIN, SNOW, ETC.)
        OR FOG.

NJZ015>026-281400-
SOUTHERN NEW JERSEY

CITY           SKY/WX    TMP DP  RH WIND       PRES   REMARKS
POMONA         SUNNY     17   1  49 N10       30.81R WCI   5
RIO GRANDE*    SUNNY     18   1  49 N12G17    30.82R WCI   5
MILLVILLE      SUNNY    N/A N/A N/A N6        30.82R
WRIGHTSTOWN    SUNNY     15  -3  44 N12       30.79R WCI   2
MOUNT HOLLY    SUNNY     16   0  49 N6        30.83R WCI   7
TRENTON        SUNNY     14  -3  47 VRB3      30.80R

$$
NJZ001>014-281400-
NORTHERN NEW JERSEY

CITY           SKY/WX    TMP DP  RH WIND       PRES   REMARKS
SUSSEX         SUNNY      9  -5  53 CALM      30.76R
ANDOVER*         N/A      0  -5  79 CALM      30.77R
MORRISTOWN     SUNNY     12  -2  52 N7        30.81R WCI   2
NEWARK         MOSUNNY   15  -2  46 NW10      30.81R WCI   2
TETERBORO      SUNNY     14  -4  44 N9        30.81R WCI   2
CALDWELL       SUNNY     11  -4  51 VRB5      30.81R WCI   3
SOMERVILLE     MOSUNNY   10  -4  53 N5        30.79R WCI   2
ALLAIRE*       SUNNY     16  -4  41 NW9       30.79R WCI   4
TOMS RIVER*    SUNNY     16  -2  45 NW10      30.81R WCI   3

$$
PAZ043-044-047-054-055-060>062-066>071-281400-
EASTERN PENNSYLVANIA

CITY           SKY/WX    TMP DP  RH WIND       PRES   REMARKS
PHILADELPHIA   MOSUNNY   18  -3  39 N12       30.84R WCI   5
NORTH PHILA    SUNNY     17  -3  41 N10       30.83R WCI   5
BLUE BELL      SUNNY     18   0  45 NW5       30.79R WCI  11
DOYLESTOWN     SUNNY     10  -4  53 N7        30.78R WCI  -1
QUAKERTOWN*    MOSUNNY   12  -4  48 N6        30.78S WCI   3
POTTSTOWN      MOSUNNY   14  -3  47 NW5       30.81R WCI   6
LANCASTER      SUNNY     12  -2  53 NW6       30.80R WCI   3
COATESVILLE    SUNNY     16   0  48 N13       30.77R WCI   2
READING        MOSUNNY   11  -3  53 N5        30.80R WCI   3
ALLENTOWN      MOSUNNY   11  -6  46 NW5       30.80R WCI   3
MOUNT POCONO     N/A    N/A N/A N/A MISG      30.61R
HAZLETON       MOSUNNY    9  -6  52 CALM      30.70R
WILKES BARRE   MOSUNNY    6  -4  63 CALM      30.75R

$$
DEZALL-MDZ008-012-015-019-020-281400-
DELAWARE AND EASTERN MARYLAND

CITY           SKY/WX    TMP DP  RH WIND       PRES   REMARKS
WILMINGTON     SUNNY     18   0  45 N7        30.83R WCI   9
DOVER          SUNNY     19   7  59 VRB7      30.82R WCI  10
GEORGETOWN     SUNNY     23   3  42 N6        30.82R WCI  16
EASTON         MOSUNNY   19   5  53 N6        30.86R WCI  11
PATUXENT       CLOUDY    22   6  50 N12       30.81R WCI  10
OCEAN CITY     MOSUNNY   20   7  57 N9        30.81R WCI   9
WALLOPS ISLAND MOSUNNY   19   7  59 N10       30.80R WCI   7
CAMBRIDGE      MOSUNNY   23   5  46 N7        30.81R WCI  15
SALISBURY      MOSUNNY   21   4  47 N8        30.80R WCI  11

$$
PAZ001-021-NYZ056-072-MDZ011-DCZ001-281400-
OTHER NEARBY LOCATIONS

CITY           SKY/WX    TMP DP  RH WIND       PRES   REMARKS
HARRISBURG     MOSUNNY   10   2  69 NW3       30.81R
STATE COLLEGE  SUNNY      1  -6  71 CALM      30.74R
WILLIAMSPORT   SUNNY      8  -5  55 W6        30.82R WCI  -2
BINGHAMTON     MOSUNNY   -2  -8  76 W6        30.65R WCI -14
NEW YORK CITY  SUNNY     14  -3  47 VRB3      30.82R
BALTIMORE      PTSUNNY   17  -2  43 N7        30.82R WCI   8
WASHINGTON DC  PTSUNNY   22   0  38 N8        30.85R WCI  12

$$


USA.gov is the U.S. government's official web portal to all federal, state and local government web resources and services.